^^
Station Historical Data
Daily Summary for April 18, 2017 Units:  English    Metric   Both
« Previous Day
Next Day »
Daily Weekly Monthly Yearly Custom
  High: Low: Average:
Temperature: 68.0 °F 45.5 °F 56.9 °F
Dew Point: 40.2 °F 31.1 °F 36.3 °F
Humidity: 71 % 26 % 48 %
Wind Speed: 7.2 mph 0.0 mph 1.5 mph
Wind Gust: 14.0 mph - -
Wind:- - SSE
Pressure: 30.44 in 30.18 in -
Precipitation: 0.00 in    
Historical Graphs
 
 
Tabular Data for April 18, 2017
Time Temperature Dew Point Pressure Wind Wind Speed Wind Gust Humidity Rainfall Rate (Hourly) solar Conditions
00:03 56.8 °F 37.3 °F 30.18 in Calm     48 % 0.00 in 0.0 W/m2 BKN
00:08 56.7 °F 37.2 °F 30.18 in Calm     48 % 0.00 in 0.0 W/m2 BKN
00:13 56.7 °F 37.2 °F 30.18 in Calm     48 % 0.00 in 0.0 W/m2 BKN
00:18 56.7 °F 36.7 °F 30.18 in Calm     47 % 0.00 in 0.0 W/m2 BKN
00:23 56.6 °F 37.1 °F 30.18 in Calm     48 % 0.00 in 0.0 W/m2 BKN
00:28 56.4 °F 36.9 °F 30.18 in Calm     48 % 0.00 in 0.0 W/m2 BKN
00:33 56.4 °F 36.9 °F 30.19 in Calm     48 % 0.00 in 0.0 W/m2 BKN
00:38 55.9 °F 37.0 °F 30.19 in Calm     49 % 0.00 in 0.0 W/m2 BKN
00:43 55.5 °F 37.1 °F 30.19 in Calm     50 % 0.00 in 0.0 W/m2 BKN
00:48 55.2 °F 36.9 °F 30.19 in Calm     50 % 0.00 in 0.0 W/m2 BKN
00:53 54.9 °F 37.1 °F 30.19 in Calm     51 % 0.00 in 0.0 W/m2 BKN
00:58 55.2 °F 36.9 °F 30.19 in Calm     50 % 0.00 in 0.0 W/m2 BKN
01:03 55.1 °F 36.8 °F 30.19 in Calm     50 % 0.00 in 0.0 W/m2 BKN
01:08 54.8 °F 37.0 °F 30.19 in Calm     51 % 0.00 in 0.0 W/m2 BKN
01:13 54.7 °F 37.4 °F 30.19 in Calm     52 % 0.00 in 0.0 W/m2 BKN
01:19 54.4 °F 37.1 °F 30.19 in Calm     52 % 0.00 in 0.0 W/m2 BKN
01:20 54.4 °F 37.1 °F 30.19 in Calm     52 % 0.00 in 0.0 W/m2 CLR
01:25 54.0 °F 37.2 °F 30.19 in Calm     53 % 0.00 in 0.0 W/m2 CLR
01:30 54.0 °F 37.2 °F 30.20 in Calm     53 % 0.00 in 0.0 W/m2 BKN
01:35 54.1 °F 37.3 °F 30.20 in Calm     53 % 0.00 in 0.0 W/m2 CLR
01:40 53.9 °F 37.1 °F 30.20 in Calm     53 % 0.00 in 0.0 W/m2 CLR
01:45 53.8 °F 37.5 °F 30.20 in Calm     54 % 0.00 in 0.0 W/m2 BKN
01:50 53.2 °F 37.9 °F 30.20 in Calm     56 % 0.00 in 0.0 W/m2 BKN
01:55 52.9 °F 37.6 °F 30.20 in Calm     56 % 0.00 in 0.0 W/m2 BKN
02:00 52.8 °F 38.0 °F 30.20 in Calm     57 % 0.00 in 0.0 W/m2 BKN
02:05 52.5 °F 37.7 °F 30.21 in Calm     57 % 0.00 in 0.0 W/m2 BKN
02:10 52.4 °F 38.0 °F 30.21 in Calm     58 % 0.00 in 0.0 W/m2 BKN
02:15 51.9 °F 37.6 °F 30.21 in Calm     58 % 0.00 in 0.0 W/m2 BKN
02:20 51.9 °F 37.6 °F 30.21 in Calm     58 % 0.00 in 0.0 W/m2 BKN
02:25 51.9 °F 37.6 °F 30.21 in NNE 0.6 mph 4.0 mph 58 % 0.00 in 0.0 W/m2 BKN
02:30 52.3 °F 37.5 °F 30.21 in Calm     57 % 0.00 in 0.0 W/m2 BKN
02:35 52.3 °F 37.5 °F 30.21 in NNE 2.5 mph 5.8 mph 57 % 0.00 in 0.0 W/m2 BKN
02:40 52.5 °F 37.7 °F 30.22 in NNE 1.6 mph 3.5 mph 57 % 0.00 in 0.0 W/m2 BKN
02:45 52.5 °F 37.7 °F 30.22 in Calm     57 % 0.00 in 0.0 W/m2 BKN
02:50 52.3 °F 37.5 °F 30.22 in Calm   1.0 mph 57 % 0.00 in 0.0 W/m2 BKN
02:55 52.2 °F 37.4 °F 30.22 in NNE 1.4 mph 4.6 mph 57 % 0.00 in 0.0 W/m2 BKN
03:00 52.1 °F 37.3 °F 30.23 in NNE 0.3 mph 3.5 mph 57 % 0.00 in 0.0 W/m2 BKN
03:05 52.0 °F 37.2 °F 30.23 in NNE 3.1 mph 5.0 mph 57 % 0.00 in 0.0 W/m2 BKN
03:10 51.8 °F 37.5 °F 30.23 in NNE 3.1 mph 5.0 mph 58 % 0.00 in 0.0 W/m2 BKN
03:15 51.7 °F 37.4 °F 30.23 in NNE 3.0 mph 4.6 mph 58 % 0.00 in 0.0 W/m2 BKN
03:20 51.7 °F 37.4 °F 30.23 in North 1.4 mph 3.5 mph 58 % 0.00 in 0.0 W/m2 BKN
03:25 51.5 °F 37.2 °F 30.24 in North 0.1 mph   58 % 0.00 in 0.0 W/m2 BKN
03:30 51.3 °F 37.0 °F 30.24 in North 0.1 mph 3.5 mph 58 % 0.00 in 0.0 W/m2 BKN
03:35 51.3 °F 37.0 °F 30.24 in North 1.2 mph 4.6 mph 58 % 0.00 in 0.0 W/m2 BKN
03:40 51.1 °F 36.8 °F 30.24 in North 0.4 mph 3.5 mph 58 % 0.00 in 0.0 W/m2 BKN
03:45 50.8 °F 37.0 °F 30.24 in NNW 0.1 mph 4.6 mph 59 % 0.00 in 0.0 W/m2 BKN
03:50 50.5 °F 36.7 °F 30.24 in NNE 4.1 mph 4.6 mph 59 % 0.00 in 0.0 W/m2 BKN
03:55 50.5 °F 37.1 °F 30.24 in NNE 3.5 mph 6.0 mph 60 % 0.00 in 0.0 W/m2 BKN
04:00 50.6 °F 37.2 °F 30.24 in NNE 7.2 mph 9.2 mph 60 % 0.00 in 0.0 W/m2 BKN
04:05 50.7 °F 36.9 °F 30.25 in NNE 3.6 mph 10.4 mph 59 % 0.00 in 0.0 W/m2 BKN
04:10 50.4 °F 37.0 °F 30.25 in NNE 1.9 mph 3.5 mph 60 % 0.00 in 0.0 W/m2 BKN
04:15 50.2 °F 36.8 °F 30.25 in North 0.1 mph 2.3 mph 60 % 0.00 in 0.0 W/m2 BKN
04:20 50.0 °F 37.1 °F 30.25 in Calm     61 % 0.00 in 0.0 W/m2 BKN
04:25 49.8 °F 36.9 °F 30.25 in Calm     61 % 0.00 in 0.0 W/m2 BKN
04:30 49.5 °F 37.0 °F 30.26 in Calm     62 % 0.00 in 0.0 W/m2 BKN
04:35 49.1 °F 37.0 °F 30.26 in Calm     63 % 0.00 in 0.0 W/m2 BKN
04:40 49.4 °F 36.9 °F 30.26 in Calm     62 % 0.00 in 0.0 W/m2 BKN
04:45 49.2 °F 36.7 °F 30.26 in Calm     62 % 0.00 in 0.0 W/m2 BKN
04:50 48.9 °F 37.3 °F 30.27 in Calm     64 % 0.00 in 0.0 W/m2 BKN
04:55 48.8 °F 37.2 °F 30.27 in Calm     64 % 0.00 in 0.0 W/m2 BKN
05:00 48.9 °F 36.9 °F 30.27 in Calm     63 % 0.00 in 0.0 W/m2 BKN
05:05 48.8 °F 37.2 °F 30.27 in Calm     64 % 0.00 in 0.0 W/m2 BKN
05:10 48.5 °F 36.9 °F 30.27 in Calm     64 % 0.00 in 0.0 W/m2 BKN
05:15 48.5 °F 36.9 °F 30.28 in Calm     64 % 0.00 in 0.0 W/m2 BKN
05:20 47.9 °F 36.7 °F 30.28 in Calm     65 % 0.00 in 0.0 W/m2 BKN
05:25 47.7 °F 36.9 °F 30.28 in Calm     66 % 0.00 in 0.0 W/m2 BKN
05:30 47.4 °F 36.6 °F 30.28 in Calm     66 % 0.00 in 0.0 W/m2 BKN
05:35 47.2 °F 36.4 °F 30.29 in Calm     66 % 0.00 in 0.0 W/m2 BKN
05:40 47.0 °F 36.6 °F 30.29 in Calm     67 % 0.00 in 0.0 W/m2 BKN
05:45 47.0 °F 36.6 °F 30.29 in Calm     67 % 0.00 in 0.0 W/m2 BKN
05:47 47.0 °F 36.6 °F 30.29 in Calm     67 % 0.00 in 0.0 W/m2 BKN
05:52 46.8 °F 36.4 °F 30.30 in Calm     67 % 0.00 in 0.0 W/m2 BKN
05:57 46.8 °F 36.4 °F 30.30 in Calm     67 % 0.00 in 0.0 W/m2 BKN
06:02 47.1 °F 36.7 °F 30.30 in Calm     67 % 0.00 in 0.0 W/m2 BKN
06:07 46.5 °F 36.5 °F 30.30 in Calm     68 % 0.00 in 0.0 W/m2 BKN
06:12 46.4 °F 36.8 °F 30.31 in Calm     69 % 0.00 in 0.0 W/m2 BKN
06:17 46.2 °F 36.6 °F 30.31 in Calm     69 % 0.00 in 0.0 W/m2 BKN
06:22 46.4 °F 36.8 °F 30.31 in Calm     69 % 0.00 in 5.0 W/m2 BKN
06:27 46.1 °F 36.5 °F 30.31 in Calm     69 % 0.00 in 7.0 W/m2 BKN
06:32 45.8 °F 36.2 °F 30.32 in Calm     69 % 0.00 in 11.0 W/m2 BKN
06:37 45.5 °F 36.3 °F 30.32 in Calm     70 % 0.00 in 14.0 W/m2 BKN
06:42 45.7 °F 36.5 °F 30.32 in Calm     70 % 0.00 in 16.0 W/m2 BKN
06:47 45.7 °F 36.5 °F 30.32 in Calm     70 % 0.00 in 19.0 W/m2 BKN
06:52 46.1 °F 37.2 °F 30.32 in Calm     71 % 0.00 in 21.0 W/m2 BKN
06:57 46.4 °F 37.1 °F 30.32 in Calm     70 % 0.00 in 25.0 W/m2 BKN
07:02 46.3 °F 37.4 °F 30.32 in Calm     71 % 0.00 in 25.0 W/m2 BKN
07:07 46.3 °F 37.4 °F 30.33 in Calm     71 % 0.00 in 32.0 W/m2 BKN
07:12 46.3 °F 37.4 °F 30.33 in Calm     71 % 0.00 in 63.0 W/m2 SCT
07:17 46.7 °F 37.8 °F 30.33 in Calm     71 % 0.00 in 90.0 W/m2 CLR
07:22 47.4 °F 38.1 °F 30.33 in Calm     70 % 0.00 in 83.0 W/m2 CLR
07:27 48.3 °F 38.2 °F 30.33 in Calm     68 % 0.00 in 84.0 W/m2 FEW
07:32 48.6 °F 37.0 °F 30.34 in Calm     64 % 0.00 in 81.0 W/m2 SCT
07:37 48.7 °F 37.1 °F 30.34 in Calm     64 % 0.00 in 83.0 W/m2 SCT
07:42 49.0 °F 36.9 °F 30.34 in Calm     63 % 0.00 in 88.0 W/m2 BKN
07:47 49.3 °F 36.8 °F 30.35 in North 0.7 mph 3.5 mph 62 % 0.00 in 95.0 W/m2 BKN
07:52 49.7 °F 36.8 °F 30.35 in NNE 2.8 mph 3.5 mph 61 % 0.00 in 105.0 W/m2 SCT
07:57 50.0 °F 36.7 °F 30.35 in NNW 2.1 mph 4.6 mph 60 % 0.00 in 125.0 W/m2 BKN
08:02 50.2 °F 36.8 °F 30.35 in NE 5.7 mph 9.0 mph 60 % 0.00 in 98.0 W/m2 SCT
08:07 50.3 °F 36.5 °F 30.35 in NNE 3.9 mph 6.0 mph 59 % 0.00 in 181.0 W/m2 SCT
08:12 50.4 °F 36.6 °F 30.36 in NE 2.9 mph 6.9 mph 59 % 0.00 in 218.0 W/m2 FEW
08:17 50.7 °F 36.9 °F 30.36 in North 3.6 mph 5.8 mph 59 % 0.00 in 304.0 W/m2 CLR
08:22 51.2 °F 36.9 °F 30.36 in NNE 3.8 mph 10.4 mph 58 % 0.00 in 369.0 W/m2 CLR
08:27 52.0 °F 37.2 °F 30.36 in NNE 1.6 mph 4.0 mph 57 % 0.00 in 387.0 W/m2 CLR
08:32 51.6 °F 36.9 °F 30.37 in NNE 2.8 mph 10.0 mph 57 % 0.00 in 406.0 W/m2 CLR
08:37 51.2 °F 36.0 °F 30.36 in NE 0.8 mph 2.3 mph 56 % 0.00 in 425.0 W/m2 CLR
08:42 52.0 °F 37.7 °F 30.37 in NNE 3.0 mph 5.0 mph 58 % 0.00 in 445.0 W/m2 CLR
08:47 51.9 °F 37.1 °F 30.37 in NNE 2.0 mph 4.6 mph 57 % 0.00 in 461.0 W/m2 CLR
08:52 52.7 °F 37.0 °F 30.37 in NNW 0.7 mph 5.8 mph 55 % 0.00 in 478.0 W/m2 CLR
08:57 52.6 °F 37.8 °F 30.37 in NNE 0.3 mph 3.5 mph 57 % 0.00 in 497.0 W/m2 CLR
09:02 53.3 °F 37.5 °F 30.38 in NNW 2.5 mph 11.5 mph 55 % 0.00 in 513.0 W/m2 CLR
09:07 53.0 °F 36.8 °F 30.38 in NNW 3.1 mph 4.6 mph 54 % 0.00 in 533.0 W/m2 CLR
09:12 53.7 °F 37.9 °F 30.38 in NW 2.6 mph 5.8 mph 55 % 0.00 in 548.0 W/m2 CLR
09:17 53.5 °F 36.8 °F 30.38 in NNE 3.3 mph 5.0 mph 53 % 0.00 in 568.0 W/m2 CLR
09:22 53.4 °F 38.1 °F 30.38 in NNE 0.9 mph 3.5 mph 56 % 0.00 in 582.0 W/m2 CLR
09:27 54.2 °F 38.4 °F 30.38 in NNW 2.3 mph 5.8 mph 55 % 0.00 in 599.0 W/m2 CLR
09:32 53.9 °F 36.2 °F 30.38 in Calm     51 % 0.00 in 615.0 W/m2 CLR
09:37 54.0 °F 38.2 °F 30.38 in NNE 5.0 mph 6.9 mph 55 % 0.00 in 633.0 W/m2 CLR
09:42 54.1 °F 37.8 °F 30.38 in NNE 4.2 mph 9.2 mph 54 % 0.00 in 649.0 W/m2 CLR
09:47 54.4 °F 37.6 °F 30.38 in NW 5.3 mph 5.8 mph 53 % 0.00 in 663.0 W/m2 CLR
09:52 54.9 °F 37.6 °F 30.38 in NNE 2.0 mph 8.1 mph 52 % 0.00 in 679.0 W/m2 CLR
09:57 55.1 °F 36.8 °F 30.38 in Calm   2.3 mph 50 % 0.00 in 689.0 W/m2 CLR
10:02 55.5 °F 39.1 °F 30.38 in North 1.5 mph 3.5 mph 54 % 0.00 in 708.0 W/m2 CLR
10:07 54.9 °F 37.1 °F 30.38 in NNE 1.8 mph 10.4 mph 51 % 0.00 in 722.0 W/m2 CLR
10:12 56.0 °F 38.1 °F 30.38 in NW 0.3 mph 3.5 mph 51 % 0.00 in 737.0 W/m2 CLR
10:18 55.9 °F 37.5 °F 30.38 in NE 1.9 mph 8.1 mph 50 % 0.00 in 745.0 W/m2 CLR
10:23 55.8 °F 37.4 °F 30.38 in NE 4.1 mph 5.8 mph 50 % 0.00 in 756.0 W/m2 CLR
10:28 56.3 °F 37.9 °F 30.38 in NNW 4.4 mph 8.1 mph 50 % 0.00 in 773.0 W/m2 CLR
10:33 57.0 °F 38.0 °F 30.38 in NNW 2.6 mph 8.1 mph 49 % 0.00 in 788.0 W/m2 CLR
10:38 56.9 °F 37.4 °F 30.38 in NNE 1.2 mph 4.6 mph 48 % 0.00 in 800.0 W/m2 CLR
10:43 56.6 °F 37.1 °F 30.38 in NNE 2.4 mph 4.0 mph 48 % 0.00 in 810.0 W/m2 CLR
10:48 57.6 °F 38.6 °F 30.38 in NNE 0.6 mph 3.0 mph 49 % 0.00 in 823.0 W/m2 CLR
10:53 57.6 °F 38.0 °F 30.38 in NNE 3.8 mph 5.8 mph 48 % 0.00 in 830.0 W/m2 CLR
10:58 57.0 °F 37.5 °F 30.38 in NNE 1.2 mph 4.6 mph 48 % 0.00 in 840.0 W/m2 CLR
11:03 56.8 °F 37.3 °F 30.38 in NE 1.7 mph 5.8 mph 48 % 0.00 in 847.0 W/m2 CLR
11:08 57.0 °F 37.5 °F 30.39 in ENE 4.4 mph 6.9 mph 48 % 0.00 in 856.0 W/m2 CLR
11:13 57.2 °F 36.6 °F 30.38 in Calm   4.6 mph 46 % 0.00 in 867.0 W/m2 CLR
11:18 57.6 °F 39.6 °F 30.39 in NNE 1.6 mph 2.0 mph 51 % 0.00 in 879.0 W/m2 CLR
11:23 57.8 °F 37.1 °F 30.38 in SSE 0.4 mph 2.3 mph 46 % 0.00 in 884.0 W/m2 CLR
11:28 58.1 °F 36.9 °F 30.38 in ENE 0.5 mph 5.8 mph 45 % 0.00 in 891.0 W/m2 CLR
11:33 58.4 °F 38.2 °F 30.38 in NNE 4.1 mph 4.1 mph 47 % 0.00 in 896.0 W/m2 CLR
11:38 58.4 °F 36.6 °F 30.38 in Calm   1.2 mph 44 % 0.00 in 905.0 W/m2 CLR
11:43 58.2 °F 37.5 °F 30.38 in Calm   1.2 mph 46 % 0.00 in 912.0 W/m2 CLR
11:48 58.2 °F 36.4 °F 30.37 in Calm     44 % 0.00 in 923.0 W/m2 CLR
11:53 58.5 °F 36.1 °F 30.37 in Calm     43 % 0.00 in 925.0 W/m2 CLR
11:58 60.1 °F 36.9 °F 30.37 in NW 0.9 mph 3.5 mph 42 % 0.00 in 930.0 W/m2 CLR
12:03 61.4 °F 35.5 °F 30.37 in West 2.1 mph 9.2 mph 38 % 0.00 in 935.0 W/m2 CLR
12:08 60.5 °F 36.7 °F 30.37 in Calm     41 % 0.00 in 940.0 W/m2 CLR
12:13 59.6 °F 35.9 °F 30.37 in Calm     41 % 0.00 in 944.0 W/m2 CLR
12:18 59.9 °F 35.5 °F 30.37 in NW 3.5 mph 4.0 mph 40 % 0.00 in 949.0 W/m2 CLR
12:23 61.9 °F 36.7 °F 30.37 in NW 4.0 mph 11.0 mph 39 % 0.00 in 954.0 W/m2 CLR
12:28 62.8 °F 36.8 °F 30.36 in NNW 3.8 mph 5.8 mph 38 % 0.00 in 956.0 W/m2 CLR
12:33 63.3 °F 38.6 °F 30.36 in NNW 5.2 mph 8.1 mph 40 % 0.00 in 960.0 W/m2 CLR
12:38 62.1 °F 34.8 °F 30.36 in Calm   1.2 mph 36 % 0.00 in 962.0 W/m2 CLR
12:43 62.0 °F 36.7 °F 30.36 in NW 3.4 mph 8.0 mph 39 % 0.00 in 967.0 W/m2 CLR
12:48 63.0 °F 36.3 °F 30.36 in NW 6.3 mph 10.4 mph 37 % 0.00 in 965.0 W/m2 CLR
12:53 63.2 °F 35.1 °F 30.36 in NNW 2.8 mph 4.6 mph 35 % 0.00 in 963.0 W/m2 CLR
12:58 63.7 °F 35.5 °F 30.36 in NW 1.4 mph 3.5 mph 35 % 0.00 in 963.0 W/m2 CLR
13:03 63.2 °F 35.1 °F 30.36 in WSW 1.1 mph 4.6 mph 35 % 0.00 in 962.0 W/m2 CLR
13:08 63.9 °F 37.8 °F 30.36 in NW 3.9 mph 8.1 mph 38 % 0.00 in 969.0 W/m2 CLR
13:13 64.1 °F 32.8 °F 30.36 in SW 1.7 mph 3.5 mph 31 % 0.00 in 946.0 W/m2 CLR
13:18 64.3 °F 33.8 °F 30.35 in NNW 5.6 mph 9.2 mph 32 % 0.00 in 962.0 W/m2 CLR
13:23 63.7 °F 36.2 °F 30.35 in NNW 4.3 mph 10.0 mph 36 % 0.00 in 953.0 W/m2 CLR
13:28 64.0 °F 35.0 °F 30.35 in NW 5.8 mph 11.5 mph 34 % 0.00 in 949.0 W/m2 CLR
13:33 63.2 °F 33.6 °F 30.35 in WSW 1.1 mph 2.3 mph 33 % 0.00 in 951.0 W/m2 CLR
13:38 63.5 °F 35.3 °F 30.35 in WSW 4.3 mph 8.1 mph 35 % 0.00 in 953.0 W/m2 CLR
13:43 63.6 °F 36.1 °F 30.35 in WNW 1.6 mph 6.0 mph 36 % 0.00 in 911.0 W/m2 CLR
13:48 64.7 °F 33.3 °F 30.35 in West 2.7 mph 10.4 mph 31 % 0.00 in 898.0 W/m2 CLR
13:53 65.0 °F 33.6 °F 30.35 in NNW 5.0 mph 9.2 mph 31 % 0.00 in 944.0 W/m2 CLR
13:58 65.5 °F 36.4 °F 30.35 in North 5.0 mph 6.9 mph 34 % 0.00 in 937.0 W/m2 CLR
14:03 65.4 °F 34.8 °F 30.35 in NW 2.7 mph 8.1 mph 32 % 0.00 in 875.0 W/m2 CLR
14:08 66.6 °F 34.2 °F 30.34 in NW 1.8 mph 4.0 mph 30 % 0.00 in 905.0 W/m2 CLR
14:13 65.3 °F 33.9 °F 30.34 in WSW 3.8 mph 4.6 mph 31 % 0.00 in 911.0 W/m2 CLR
14:18 65.0 °F 34.4 °F 30.34 in WNW 2.7 mph 7.0 mph 32 % 0.00 in 898.0 W/m2 CLR
14:19 65.3 °F 33.9 °F 30.34 in NW 7.2 mph 9.2 mph 31 % 0.00 in 881.0 W/m2 CLR
14:24 65.4 °F 34.0 °F 30.34 in NNW 0.3 mph 2.0 mph 31 % 0.00 in 902.0 W/m2 CLR
14:29 66.0 °F 36.8 °F 30.34 in NE 4.4 mph 7.0 mph 34 % 0.00 in 898.0 W/m2 CLR
14:34 65.0 °F 35.2 °F 30.34 in East 1.3 mph 3.5 mph 33 % 0.00 in 881.0 W/m2 CLR
14:39 64.5 °F 34.7 °F 30.33 in ESE 0.1 mph 1.0 mph 33 % 0.00 in 870.0 W/m2 CLR
14:44 65.3 °F 34.7 °F 30.33 in NNE 0.6 mph 2.3 mph 32 % 0.00 in 867.0 W/m2 CLR
14:49 65.7 °F 38.7 °F 30.33 in NE 3.5 mph 6.9 mph 37 % 0.00 in 858.0 W/m2 CLR
14:54 66.3 °F 34.7 °F 30.33 in North 0.2 mph 3.5 mph 31 % 0.00 in 840.0 W/m2 CLR
14:59 65.8 °F 36.6 °F 30.32 in NE 1.9 mph 3.5 mph 34 % 0.00 in 842.0 W/m2 CLR
15:04 65.9 °F 36.0 °F 30.33 in North 4.2 mph 8.1 mph 33 % 0.00 in 837.0 W/m2 CLR
15:09 66.6 °F 35.8 °F 30.33 in ENE 0.1 mph 4.6 mph 32 % 0.00 in 816.0 W/m2 CLR
15:14 65.8 °F 33.5 °F 30.33 in ENE 1.7 mph 3.5 mph 30 % 0.00 in 824.0 W/m2 CLR
15:19 66.0 °F 33.7 °F 30.32 in SE 0.6 mph 3.0 mph 30 % 0.00 in 791.0 W/m2 CLR
15:24 65.4 °F 31.4 °F 30.33 in Calm   2.3 mph 28 % 0.00 in 770.0 W/m2 CLR
15:29 66.4 °F 33.2 °F 30.33 in NNE 1.5 mph 7.0 mph 29 % 0.00 in 782.0 W/m2 CLR
15:34 67.1 °F 34.6 °F 30.32 in North 4.4 mph 5.8 mph 30 % 0.00 in 765.0 W/m2 CLR
15:39 67.3 °F 33.9 °F 30.33 in Calm   1.2 mph 29 % 0.00 in 684.0 W/m2 CLR
15:44 67.3 °F 32.1 °F 30.33 in NW 2.6 mph 4.6 mph 27 % 0.00 in 728.0 W/m2 CLR
15:49 67.0 °F 31.9 °F 30.32 in North 0.8 mph 4.6 mph 27 % 0.00 in 717.0 W/m2 CLR
15:54 67.1 °F 33.8 °F 30.32 in North 4.8 mph 8.1 mph 29 % 0.00 in 700.0 W/m2 CLR
15:59 68.0 °F 33.7 °F 30.32 in NW 3.9 mph 8.1 mph 28 % 0.00 in 677.0 W/m2 CLR
16:04 67.4 °F 32.2 °F 30.32 in West 2.0 mph 5.8 mph 27 % 0.00 in 663.0 W/m2 CLR
16:06 67.0 °F 31.9 °F 30.32 in NNW 4.9 mph 8.0 mph 27 % 0.00 in 656.0 W/m2 CLR
16:11 67.3 °F 33.1 °F 30.32 in North 3.1 mph 5.0 mph 28 % 0.00 in 640.0 W/m2 CLR
16:16 66.9 °F 32.7 °F 30.32 in NNW 5.3 mph 8.1 mph 28 % 0.00 in 628.0 W/m2 CLR
16:22 66.7 °F 31.6 °F 30.32 in Calm   4.6 mph 27 % 0.00 in 615.0 W/m2 CLR
16:27 66.7 °F 32.5 °F 30.32 in NNE 1.4 mph 3.5 mph 28 % 0.00 in 598.0 W/m2 CLR
16:32 66.8 °F 32.6 °F 30.32 in Calm     28 % 0.00 in 582.0 W/m2 CLR
16:37 66.6 °F 32.5 °F 30.31 in NE 1.1 mph 4.0 mph 28 % 0.00 in 561.0 W/m2 CLR
16:42 66.8 °F 32.6 °F 30.32 in Calm     28 % 0.00 in 550.0 W/m2 CLR
16:47 67.7 °F 34.3 °F 30.31 in NE 0.9 mph 3.5 mph 29 % 0.00 in 534.0 W/m2 CLR
16:52 66.7 °F 31.6 °F 30.32 in East 0.1 mph 1.2 mph 27 % 0.00 in 519.0 W/m2 CLR
16:57 66.7 °F 32.5 °F 30.32 in Calm     28 % 0.00 in 504.0 W/m2 CLR
17:02 66.9 °F 31.8 °F 30.32 in Calm     27 % 0.00 in 485.0 W/m2 CLR
17:07 66.8 °F 31.7 °F 30.32 in NNE 4.1 mph 9.2 mph 27 % 0.00 in 471.0 W/m2 CLR
17:12 66.8 °F 31.7 °F 30.32 in NE 0.9 mph 3.5 mph 27 % 0.00 in 452.0 W/m2 CLR
17:17 67.3 °F 31.2 °F 30.32 in NW 1.4 mph 3.5 mph 26 % 0.00 in 438.0 W/m2 CLR
17:22 67.5 °F 32.3 °F 30.32 in North 0.8 mph 3.5 mph 27 % 0.00 in 415.0 W/m2 CLR
17:27 67.5 °F 31.4 °F 30.33 in South 4.9 mph 5.8 mph 26 % 0.00 in 397.0 W/m2 CLR
17:32 67.2 °F 31.1 °F 30.33 in Calm     26 % 0.00 in 378.0 W/m2 CLR
17:37 66.9 °F 32.7 °F 30.33 in Calm     28 % 0.00 in 362.0 W/m2 CLR
17:42 67.0 °F 31.9 °F 30.33 in South 1.2 mph 4.6 mph 27 % 0.00 in 345.0 W/m2 CLR
17:47 66.8 °F 31.7 °F 30.33 in South 2.6 mph 3.5 mph 27 % 0.00 in 327.0 W/m2 CLR
17:52 66.8 °F 31.7 °F 30.33 in SSE 0.1 mph 2.3 mph 27 % 0.00 in 311.0 W/m2 CLR
17:57 66.5 °F 33.2 °F 30.33 in Calm     29 % 0.00 in 288.0 W/m2 CLR
18:02 66.6 °F 31.5 °F 30.33 in Calm     27 % 0.00 in 264.0 W/m2 CLR
18:07 66.5 °F 32.4 °F 30.33 in Calm     28 % 0.00 in 225.0 W/m2 CLR
18:12 66.6 °F 31.5 °F 30.33 in South 2.3 mph 3.5 mph 27 % 0.00 in 225.0 W/m2 CLR
18:17 66.7 °F 31.6 °F 30.33 in SSW 2.7 mph 5.0 mph 27 % 0.00 in 200.0 W/m2 CLR
18:22 66.5 °F 31.5 °F 30.33 in Calm   1.2 mph 27 % 0.00 in 165.0 W/m2 FEW
18:27 66.6 °F 31.5 °F 30.33 in Calm     27 % 0.00 in 162.0 W/m2 CLR
18:32 66.7 °F 32.5 °F 30.33 in South 0.1 mph 2.3 mph 28 % 0.00 in 148.0 W/m2 CLR
18:37 66.6 °F 32.5 °F 30.33 in South 0.7 mph 2.3 mph 28 % 0.00 in 118.0 W/m2 FEW
18:42 66.2 °F 33.0 °F 30.33 in South 0.4 mph 2.3 mph 29 % 0.00 in 95.0 W/m2 FEW
18:47 66.1 °F 33.7 °F 30.33 in South 1.3 mph 5.0 mph 30 % 0.00 in 74.0 W/m2 SCT
18:52 66.0 °F 32.8 °F 30.34 in South 1.3 mph 3.5 mph 29 % 0.00 in 63.0 W/m2 SCT
18:57 65.6 °F 32.5 °F 30.34 in South 0.1 mph 1.2 mph 29 % 0.00 in 46.0 W/m2 BKN
18:58 65.6 °F 32.5 °F 30.34 in Calm   1.2 mph 29 % 0.00 in 44.0 W/m2 BKN
19:03 65.6 °F 33.3 °F 30.34 in Calm   1.2 mph 30 % 0.00 in 33.0 W/m2 BKN
19:08 65.2 °F 32.1 °F 30.34 in Calm     29 % 0.00 in 25.0 W/m2 BKN
19:13 65.0 °F 32.8 °F 30.34 in Calm     30 % 0.00 in 21.0 W/m2 BKN
19:18 64.8 °F 32.6 °F 30.34 in South 1.6 mph 3.5 mph 30 % 0.00 in 19.0 W/m2 BKN
19:23 64.6 °F 33.3 °F 30.35 in Calm     31 % 0.00 in 18.0 W/m2 BKN
19:28 64.2 °F 33.7 °F 30.34 in South 0.1 mph 1.2 mph 32 % 0.00 in 14.0 W/m2 BKN
19:33 64.0 °F 33.5 °F 30.34 in South 0.3 mph 2.3 mph 32 % 0.00 in 11.0 W/m2 SCT
19:38 63.8 °F 33.4 °F 30.34 in Calm     32 % 0.00 in 7.0 W/m2 SCT
19:43 63.4 °F 33.0 °F 30.34 in South 0.1 mph 1.2 mph 32 % 0.00 in 5.0 W/m2 BKN
19:48 62.8 °F 37.5 °F 30.35 in SSE 7.0 mph 10.4 mph 39 % 0.00 in 0.0 W/m2 BKN
19:53 60.5 °F 39.0 °F 30.35 in SSE 4.4 mph 9.2 mph 45 % 0.00 in 0.0 W/m2 BKN
19:58 59.4 °F 39.1 °F 30.36 in SSE 5.8 mph 9.2 mph 47 % 0.00 in 0.0 W/m2 BKN
20:03 58.8 °F 39.7 °F 30.36 in SSE 6.2 mph 12.7 mph 49 % 0.00 in 0.0 W/m2 BKN
20:08 58.5 °F 39.9 °F 30.36 in SE 4.4 mph 6.0 mph 50 % 0.00 in 0.0 W/m2 BKN
20:13 58.2 °F 39.6 °F 30.37 in SSE 7.1 mph 11.5 mph 50 % 0.00 in 0.0 W/m2 BKN
20:18 58.0 °F 40.0 °F 30.36 in ESE 5.0 mph 12.7 mph 51 % 0.00 in 0.0 W/m2 BKN
20:23 57.8 °F 39.8 °F 30.37 in South 4.0 mph 10.4 mph 51 % 0.00 in 0.0 W/m2 BKN
20:28 57.7 °F 40.2 °F 30.37 in South 4.2 mph 14.0 mph 52 % 0.00 in 0.0 W/m2 BKN
20:33 57.5 °F 40.0 °F 30.37 in South 5.7 mph 10.4 mph 52 % 0.00 in 0.0 W/m2 BKN
20:38 57.3 °F 39.8 °F 30.37 in SE 3.3 mph 9.2 mph 52 % 0.00 in 0.0 W/m2 BKN
20:43 57.0 °F 39.5 °F 30.37 in Calm     52 % 0.00 in 0.0 W/m2 BKN
20:48 56.7 °F 39.7 °F 30.37 in South 1.1 mph 3.5 mph 53 % 0.00 in 0.0 W/m2 BKN
20:53 56.6 °F 39.7 °F 30.38 in Calm   2.3 mph 53 % 0.00 in 0.0 W/m2 BKN
20:58 56.5 °F 40.0 °F 30.38 in South 0.1 mph 1.2 mph 54 % 0.00 in 0.0 W/m2 BKN
21:03 56.4 °F 40.0 °F 30.38 in SSE 3.4 mph 11.5 mph 54 % 0.00 in 0.0 W/m2 BKN
21:08 56.3 °F 39.9 °F 30.39 in South 4.6 mph 8.1 mph 54 % 0.00 in 0.0 W/m2 BKN
21:13 56.2 °F 39.8 °F 30.39 in SSE 1.4 mph 5.0 mph 54 % 0.00 in 0.0 W/m2 BKN
21:14 56.1 °F 39.7 °F 30.39 in Calm   4.6 mph 54 % 0.00 in 0.0 W/m2 BKN
21:19 56.0 °F 39.6 °F 30.39 in Calm   3.5 mph 54 % 0.00 in 0.0 W/m2 BKN
21:24 55.7 °F 39.8 °F 30.39 in Calm     55 % 0.00 in 0.0 W/m2 BKN
21:29 55.6 °F 40.1 °F 30.39 in Calm     56 % 0.00 in 0.0 W/m2 BKN
21:34 55.5 °F 39.6 °F 30.40 in Calm   3.5 mph 55 % 0.00 in 0.0 W/m2 BKN
21:39 55.2 °F 39.8 °F 30.40 in Calm   3.5 mph 56 % 0.00 in 0.0 W/m2 BKN
21:44 55.1 °F 39.7 °F 30.40 in South 1.2 mph 3.5 mph 56 % 0.00 in 0.0 W/m2 BKN
21:49 55.0 °F 39.6 °F 30.41 in SSE 0.6 mph 5.0 mph 56 % 0.00 in 0.0 W/m2 BKN
21:54 54.8 °F 39.4 °F 30.41 in SSE 0.7 mph 3.5 mph 56 % 0.00 in 0.0 W/m2 BKN
21:59 54.6 °F 39.2 °F 30.42 in SE 1.6 mph 2.0 mph 56 % 0.00 in 0.0 W/m2 BKN
22:05 54.3 °F 38.9 °F 30.42 in SE 1.0 mph 7.0 mph 56 % 0.00 in 0.0 W/m2 CLR
22:10 54.1 °F 39.2 °F 30.42 in Calm   4.0 mph 57 % 0.00 in 0.0 W/m2 CLR
22:15 53.9 °F 38.6 °F 30.42 in SSE 4.2 mph 6.0 mph 56 % 0.00 in 0.0 W/m2 BKN
22:20 53.8 °F 38.5 °F 30.42 in SE 1.2 mph 4.6 mph 56 % 0.00 in 0.0 W/m2 BKN
22:25 53.6 °F 38.3 °F 30.42 in South 0.8 mph 5.0 mph 56 % 0.00 in 0.0 W/m2 BKN
22:30 53.4 °F 38.1 °F 30.42 in South 3.3 mph 6.0 mph 56 % 0.00 in 0.0 W/m2 BKN
22:35 53.3 °F 38.0 °F 30.41 in SE 0.2 mph 3.5 mph 56 % 0.00 in 0.0 W/m2 BKN
22:40 53.2 °F 38.4 °F 30.42 in South 2.1 mph 6.0 mph 57 % 0.00 in 0.0 W/m2 BKN
22:45 53.1 °F 37.8 °F 30.42 in South 5.5 mph 9.2 mph 56 % 0.00 in 0.0 W/m2 BKN
22:50 52.9 °F 38.1 °F 30.42 in SSE 0.6 mph 2.3 mph 57 % 0.00 in 0.0 W/m2 BKN
22:55 52.8 °F 38.0 °F 30.41 in South 1.1 mph 3.5 mph 57 % 0.00 in 0.0 W/m2 BKN
23:00 52.6 °F 37.8 °F 30.42 in South 0.5 mph 4.6 mph 57 % 0.00 in 0.0 W/m2 BKN
23:05 52.3 °F 38.0 °F 30.42 in Calm   3.0 mph 58 % 0.00 in 0.0 W/m2 BKN
23:10 52.2 °F 37.9 °F 30.42 in South 0.1 mph 1.2 mph 58 % 0.00 in 0.0 W/m2 BKN
23:15 52.1 °F 37.8 °F 30.42 in South 1.0 mph 3.5 mph 58 % 0.00 in 0.0 W/m2 BKN
23:20 52.0 °F 37.7 °F 30.42 in Calm     58 % 0.00 in 0.0 W/m2 BKN
23:25 52.0 °F 37.7 °F 30.42 in SSE 0.1 mph 1.2 mph 58 % 0.00 in 0.0 W/m2 BKN
23:30 51.9 °F 37.6 °F 30.42 in SSE 2.3 mph 8.1 mph 58 % 0.00 in 0.0 W/m2 BKN
23:35 52.1 °F 37.3 °F 30.43 in ESE 0.9 mph 3.5 mph 57 % 0.00 in 0.0 W/m2 BKN
23:40 51.8 °F 37.0 °F 30.43 in SSE 1.0 mph 3.5 mph 57 % 0.00 in 0.0 W/m2 BKN
23:45 51.7 °F 36.9 °F 30.43 in South 2.6 mph 6.0 mph 57 % 0.00 in 0.0 W/m2 BKN
23:50 51.7 °F 36.5 °F 30.44 in Calm   3.5 mph 56 % 0.00 in 0.0 W/m2 BKN
23:55 51.5 °F 36.8 °F 30.44 in Calm     57 % 0.00 in 0.0 W/m2 BKN
Air Products Campus Weather
Compliments of Weather Underground - 3.5 mb